Weather History for ESPE - May, 2013

Change the Weather History Date:

Tuesday, May 21, 2013

  Actual Average Record
Temperature  
Mean Temperature 55 °F -  
Max Temperature 68 °F - - ()
Min Temperature 42 °F - - ()
Degree Days  
Heating Degree Days 10    
Growing Degree Days 5 (Base 50)    
Moisture  
Dew Point 45 °F    
Average Humidity 69    
Maximum Humidity 93    
Minimum Humidity 49    
Precipitation  
Precipitation 0.00 in - - ()
Sea Level Pressure  
Sea Level Pressure 29.94 in    
Wind  
Wind Speed 4 mph ()    
Max Wind Speed 14 mph    
Max Gust Speed -    
Visibility 6.2 miles    
Events      
T = Trace of Precipitation, MM = Missing Value Source: Averaged Metar Reports

Daily Weather History Graph

Daily Weather History Graph

Search for Another Location

Airport or City:

Trip Planner

Search our weather history database for the weather conditions in past years. The results will help you decide how hot, cold, wet, or windy it might be!

Date:

Astronomy

May. 21, 2013 Rise Set
Actual Time 2:39 AM CEST 10:36 PM CEST
Civil Twilight 1:08 AM CEST Sun does not set
Nautical Twilight Sun does not set Sun does not set
Astronomical Twilight Sun does not set Sun does not set
Moon 4:33 PM CEST (5/21) 2:07 AM CEST (5/21)
Length of Visible Light 24h 00m
Length of Day
19h 56m
Waxing Gibbous, 81% of the Moon is Illuminated
May 21
Waxing Gibbous
May 25
Full
May 31
Last Quarter
Jun 8
New
Jun 16
First Quarter

Hourly Weather History & Observations

Time (CEST) Temp. Dew Point Humidity Pressure Visibility Wind Dir Wind Speed Gust Speed Precip Events Conditions
12:20 AM 44.6 °F 42.8 °F 93% 30.06 in 6.2 mi Calm Calm - N/A   Partly Cloudy
12:50 AM 44.6 °F 42.8 °F 93% 30.04 in 6.2 mi Calm Calm - N/A   Scattered Clouds
1:20 AM 42.8 °F 41.0 °F 93% 30.04 in 6.2 mi Variable 1.2 mph - N/A   Mostly Cloudy
1:50 AM 42.8 °F 41.0 °F 93% 30.04 in 6.2 mi Variable 2.3 mph - N/A   Overcast
2:20 AM 42.8 °F 41.0 °F 93% 30.04 in 6.2 mi Calm Calm - N/A   Overcast
2:50 AM 42.8 °F 41.0 °F 93% 30.04 in 6.2 mi Calm Calm - N/A   Overcast
3:20 AM 42.8 °F 41.0 °F 93% 30.01 in 6.2 mi Calm Calm - N/A   Overcast
3:50 AM 42.8 °F 41.0 °F 93% 30.01 in 6.2 mi Calm Calm - N/A   Mostly Cloudy
4:20 AM 42.8 °F 41.0 °F 93% 30.01 in 6.2 mi Calm Calm - N/A   Mostly Cloudy
5:20 AM 44.6 °F 42.8 °F 93% 30.01 in 6.2 mi Calm Calm - N/A   Overcast
5:50 AM 44.6 °F 42.8 °F 93% 29.98 in 6.2 mi Calm Calm - N/A   Overcast
6:20 AM 46.4 °F 42.8 °F 87% 29.98 in - Calm Calm - N/A   Clear
6:50 AM 48.2 °F 44.6 °F 87% 29.98 in - Variable 2.3 mph - N/A   Clear
7:20 AM 51.8 °F 44.6 °F 76% 29.98 in - East 4.6 mph - N/A   Clear
7:50 AM 51.8 °F 44.6 °F 76% 29.98 in - East 4.6 mph - N/A   Clear
8:50 AM 55.4 °F 44.6 °F 67% 29.98 in - East 4.6 mph - N/A   Clear
9:20 AM 55.4 °F 44.6 °F 67% 29.98 in - East 4.6 mph - N/A   Clear
9:50 AM 57.2 °F 46.4 °F 67% 29.98 in - East 4.6 mph - N/A   Clear
10:20 AM 59.0 °F 46.4 °F 63% 29.95 in - East 6.9 mph - N/A   Clear
10:50 AM 60.8 °F 48.2 °F 63% 29.95 in - ESE 5.8 mph - N/A   Clear
11:20 AM 62.6 °F 48.2 °F 59% 29.95 in - ESE 6.9 mph - N/A   Clear
11:50 AM 62.6 °F 48.2 °F 59% 29.95 in 6.2 mi East 10.4 mph - N/A   Mostly Cloudy
12:20 PM 62.6 °F 48.2 °F 59% 29.95 in 6.2 mi East 9.2 mph - N/A   Mostly Cloudy
12:50 PM 64.4 °F 50.0 °F 59% 29.92 in 6.2 mi SE 9.2 mph - N/A   Mostly Cloudy
1:20 PM 66.2 °F 50.0 °F 56% 29.92 in 6.2 mi SSE 9.2 mph - N/A   Mostly Cloudy
1:50 PM 66.2 °F 50.0 °F 56% 29.92 in 6.2 mi SE 10.4 mph - N/A   Mostly Cloudy
2:20 PM 66.2 °F 50.0 °F 56% 29.92 in 6.2 mi ESE 10.4 mph - N/A   Mostly Cloudy
2:50 PM 66.2 °F 50.0 °F 56% 29.89 in 6.2 mi SE 10.4 mph - N/A   Mostly Cloudy
3:20 PM 66.2 °F 50.0 °F 56% 29.89 in 6.2 mi ESE 13.8 mph - N/A   Mostly Cloudy
3:50 PM 68.0 °F 48.2 °F 49% 29.89 in 6.2 mi SE 12.7 mph - N/A   Scattered Clouds
4:20 PM 66.2 °F 48.2 °F 52% 29.86 in 6.2 mi SE 13.8 mph - N/A   Mostly Cloudy
4:50 PM 66.2 °F 48.2 °F 52% 29.86 in 6.2 mi SE 11.5 mph - N/A   Unknown
5:20 PM 66.2 °F 46.4 °F 49% 29.86 in 6.2 mi SSE 10.4 mph - N/A   Unknown
5:50 PM 64.4 °F 46.4 °F 52% 29.86 in 6.2 mi SE 11.5 mph - N/A   Partly Cloudy
6:20 PM 64.4 °F 46.4 °F 52% 29.86 in 6.2 mi SE 9.2 mph - N/A   Unknown
6:50 PM 64.4 °F 46.4 °F 52% 29.86 in 6.2 mi SE 10.4 mph - N/A   Unknown
7:20 PM 62.6 °F 46.4 °F 55% 29.86 in 6.2 mi ESE 11.5 mph - N/A   Unknown
7:50 PM 62.6 °F 46.4 °F 55% 29.86 in 6.2 mi ESE 6.9 mph - N/A   Unknown
8:20 PM 60.8 °F 46.4 °F 59% 29.86 in 6.2 mi ESE 10.4 mph - N/A   Unknown
8:50 PM 60.8 °F 46.4 °F 59% 29.86 in 6.2 mi ESE 6.9 mph - N/A   Unknown
9:20 PM 59.0 °F 44.6 °F 59% 29.86 in 6.2 mi SE 5.8 mph - N/A   Unknown
9:50 PM 57.2 °F 44.6 °F 63% 29.89 in 6.2 mi SE 4.6 mph - N/A   Unknown
10:20 PM 55.4 °F 44.6 °F 67% 29.89 in 6.2 mi Variable 1.2 mph - N/A   Unknown
10:50 PM 55.4 °F 44.6 °F 67% 29.89 in 6.2 mi East 5.8 mph - N/A   Unknown
11:20 PM 53.6 °F 42.8 °F 67% 29.89 in 6.2 mi ESE 5.8 mph - N/A   Unknown
11:50 PM 53.6 °F 42.8 °F 67% 29.89 in 6.2 mi ESE 3.5 mph - N/A   Unknown